Regional Weather Roundup
Issued by NWS Sterling, VA

Home | Current Version | Previous Version | Text Only | Print | Product List | Glossary On
Versions: 1 2 3 4 5 6 7 8 9 10 11 12 13 14 15 16 17 18 19 20 21 22 23 24 25 26 27 28 29 30 31 32 33 34 35 36 37 38 39 40 41 42 43 44 45 46 47 48 49 50
000
ASUS41 KLWX 111010
RWRLWX

REGIONAL WEATHER ROUNDUP
NATIONAL WEATHER SERVICE BALTIMORE MD/WASHINGTON DC
500 AM EST THU FEB 11 2016

Note: "FAIR" indicates few or no clouds below 12,000 feet
with no significant weather and/or obstructions to visibility.
 TC=TEMPERATURE CELSIUS

 * =Non NWS site. Station does not report precipitation (e.g. rain,
    snow, etc.), thunder, or fog.

DCZ001-MDZ009-015-VAZ040>042-051-053>054-111100-
WASHINGTON METRO

CITY           SKY/WX    TMP DP  RH WIND       PRES   REMARKS
WASHINGTON NAT FAIR      23   5  46 W13       30.03R WCI  11
DULLES         FAIR      21   4  47 W7        30.01R
ANDREWS AFB    CLEAR     22   4  45 W13       29.99R WCI  10
FT BELVOIR     FAIR      22   4  46 NW8       30.03R WCI  13
QUANTICO       FAIR      24   4  42 NW15G21   30.06R WCI  11
COLLEGE PARK*  FAIR      23   3  42 W9G24     30.01R WCI  13
LEESBURG*      FAIR      21  10  63 W14G22    30.01R WCI   8
MANASSAS*      FAIR      21   7  53 W12G18    30.03R WCI   9
GAITHERSBURG*  PTCLDY    18   1  49 W12       30.01R WCI   5

$$

MDZ006>007-011-014-111100-
BALTIMORE METRO

CITY           SKY/WX    TMP DP  RH WIND       PRES   REMARKS
BWI AIRPORT    MOCLDY    21   5  50 W18G25    29.98R WCI   6
MD SCIENCE CTR   N/A     22   4  46 MISG      30.00R
MARTIN STATE   PTCLDY    23  10  58 W18       29.99R WCI   9
ANNAPOLIS      PTCLDY    23   7  50 W12G22    29.99R WCI  12
FORT MEADE*    CLEAR     21   9  58 W17       30.01R WCI   7

$$

MDZ012-015-019>023-111100-
MARYLAND EASTERN SHORE

CITY           SKY/WX    TMP DP  RH WIND       PRES   REMARKS
OCEAN CITY     CLEAR     24   9  52 NW12G20   29.97R WCI  13
SALISBURY      CLEAR     24   7  48 W14G24    29.98R WCI  12
BAY BRIDGE AP*   N/A     25   5  42 NW18G28   29.99R WCI  11
CAMBRIDGE*     PTCLDY    25   7  46 W14G22    29.99R WCI  13
EASTON*        PTCLDY    24   9  51 NW14G26   30.02R WCI  12

$$

MDZ017>025-111100-
SOUTHERN MARYLAND

CITY           SKY/WX    TMP DP  RH WIND       PRES   REMARKS
PATUXENT RIVER CLEAR     23   6  48 W13       30.01R WCI  11
ST INIGOES     CLEAR     25   8  48 W15G21    30.01R WCI  13
LEONARDTOWN*   CLEAR     23   7  50 MISG        N/A

$$

MDZ003>005-111100-
NORTH CENTRAL MARYLAND

CITY           SKY/WX    TMP DP  RH WIND       PRES   REMARKS
FREDERICK*     PTCLDY    21   9  58 W15       30.02R WCI   8
HAGERSTOWN APT MOCLDY    17   4  56 W14       29.95R WCI   3
WESTMINSTER*   PTCLDY    18  10  73 W12G17    29.92R WCI   5

$$

MDZ501>502-111100-
WESTERN MARYLAND

CITY           SKY/WX    TMP DP  RH WIND       PRES   REMARKS
OAKLAND*       CLOUDY     3   1  92 W15G23    29.80R FOG     WCI -15
CUMBERLAND*    PTCLDY    18   5  57 W9G18     30.03S WCI   6

$$

VAZ025>031-111100-
SHENANDOAH VALLEY

CITY           SKY/WX    TMP DP  RH WIND       PRES   REMARKS
WINCHESTER*    MOCLDY    19   5  53 W8G18     29.98S WCI   9
FRONT ROYAL*   PTSUNNY   19   1  45 W8        29.99R WCI   9
LURAY*         FAIR      18   0  45 SW10G16   29.99S WCI   6
NEW MARKET*    FAIR      17   0  48 SW5       29.99R
STAUNTON*      FAIR      19   2  47 W10       30.01R WCI   7
WAYNESBORO*    FAIR      13  -2  49 W7        29.97R

$$

WVZ021-048>050-054>055-111100-
EASTERN WEST VIRGINIA PANHANDLE

CITY           SKY/WX    TMP DP  RH WIND       PRES   REMARKS
MARTINSBURG    MOCLDY    17   3  54 W10       29.99R WCI   5
PETERSBURG*    CLOUDY    17   3  53 CALM      30.01S

$$

VAZ036>039-050-111100-
CENTRAL FOOTHILLS

CITY           SKY/WX    TMP DP  RH WIND       PRES   REMARKS
CHARLOTTESVILL FAIR      20  -1  40 VRB5      30.02R
CULPEPER*      FAIR      20   1  43 W7        30.04R
ORANGE*        FAIR      21   5  49 SW10      30.04R WCI  10
GORDONSVILLE*  FAIR      20   1  43 W5        30.03R
WARRENTON*     FAIR      22   9  58 W8        30.02R WCI  12

$$

VAZ055>057-111100-
NORTH AND CENTRAL PIEDMONT

CITY           SKY/WX    TMP DP  RH WIND       PRES   REMARKS
FREDERICKSBRG* FAIR      21   7  54 W6        30.04R
STAFFORD*      FAIR      21   4  48 W3G9      30.07R

$$

NCZ024-NYZ072-PAZ021-071-VAZ022-071-111100-
OTHER REGIONAL OBSERVATIONS

CITY           SKY/WX    TMP DP  RH WIND       PRES   REMARKS
NEW YORK CITY  CLOUDY    25   0  33 MISG      29.82R
PHILADELPHIA   PTCLDY    24  11  57 W14G24    29.91R WCI  12
PITTSBURGH     LGT SNOW  13   7  77 W8        29.97R WCI   2
ROANOKE        FAIR      18   2  49 NW20G30   30.05R WCI   2
RICHMOND       FAIR      22   5  48 W8        30.06R WCI  12
RALEIGH        CLEAR     22   5  48 NW5       30.13R

$$

ANZ530>537-111100-
MARINE OBSERVATIONS

STATION/POSITION TIME  TEMP    WIND        PRES
                       AIR SEA DIR/SP/G
                 (UTC) (F)     (DEG/KT/KT) (MB)
THOMAS PT LIGHT  1000   23 38  290/ 20/ 24 1016.2R
BALT KEY BRIDGE  0900   23     270/ 19/ 24 1014.4R
COVE POINT       0900   24     330/ 16/ 19 1015.8S
LEWISETTA        0900   26 40  300/ 15/ 19 1015.6R
SOLOMONS ISLAND  0900   26 40  300/  6/ 13   N/A
PINEY POINT      0900          340/ 23/ 27   N/A

$$




USA.gov is the U.S. government's official web portal to all federal, state and local government web resources and services.